Regional Weather Roundup
Issued by NWS

Home | Current Version | Previous Version | Graphics & Text | Print | Product List | Glossary On
Versions: 1 2 3 4 5 6 7 8 9 10 11 12 13 14 15 16 17 18 19 20 21 22 23 24 25 26 27 28 29 30 31 32 33 34 35 36 37 38 39 40 41 42 43 44 45 46 47 48 49 50
000
ASUS43 KLOT 232004
RWRIL

ILLINOIS REGIONAL WEATHER ROUNDUP
NATIONAL WEATHER SERVICE CHICAGO/ROMEOVILLE IL
300 PM CDT SAT SEP 23 2017

NOTE: "FAIR" INDICATES FEW OR NO CLOUDS BELOW 12,000 FEET WITH NO
SIGNIFICANT WEATHER AND/OR OBSTRUCTIONS TO VISIBILITY.

* THESE STATIONS ARE NOT UNDER NWS QUALITY CONTROL. THEY ALSO MAY NOT
  REPORT WEATHER SUCH AS PRECIPITATION OR FOG.

ILZ001-002-007-009-015-016-024-232100-
NORTHWEST ILLINOIS

CITY           SKY/WX    TMP DP  RH WIND       PRES   REMARKS
MOLINE         SUNNY     93  63  36 S6        30.01F HX  94
STERLING*      MOSUNNY   93  65  39 VRB7      30.04F HX  95
SAVANNA*       SUNNY     93  62  35 SW6       30.03F HX  94
$$

ILZ003-004-008-010-011-017-018-232100-
NORTH CENTRAL ILLINOIS

CITY           SKY/WX    TMP DP  RH WIND       PRES   REMARKS
ROCKFORD       PTSUNNY   92  63  38 CALM      30.06F HX  93
FREEPORT*      MOSUNNY   91  62  37 S8        30.07S HX  91
ROCHELLE*      PTSUNNY   91  64  40 SE5       30.06S HX  92
DE KALB*       SUNNY     92  64  39 SE7       30.07F HX  93
$$

ILZ005-006-012>014-019>023-232100-
NORTHEAST ILLINOIS

CITY           SKY/WX    TMP DP  RH WIND       PRES   REMARKS
CHICAGO-OHARE  MOSUNNY   92  64  39 E10       30.04F HX  93
CHICAGO-MIDWAY MOSUNNY   93  66  40 E13       30.05F HX  96
AURORA         MOSUNNY   93  66  40 VRB3      30.06F HX  96
LANSING*       SUNNY     91  68  45 CALM      30.06F HX  95
JOLIET*        SUNNY     94  65  38 CALM      30.05F HX  96
WAUKEGAN       SUNNY     87  69  54 E8        30.06F HX  91
DUPAGE AIRPORT MOSUNNY   93  64  38 SE8       30.05F HX  94
KANKAKEE*      SUNNY     91  63  39 SW3       30.06F HX  92
WHEELING       SUNNY     93  67  42 SE12      30.06F HX  96
MORRIS*        SUNNY     92  63  37 SE7       30.04F HX  93
NORTHERLY ISL    N/A     80  68  66 E5          N/A  HX  83
$$

LMZ740>746-232100-
SOUTHERN LAKE MICHIGAN

STATION/POSITION SKY/WX   TEMP    WIND        PRES    VSBY  WAVE
                          AIR SEA DIR/SP/G                  HT/PER
                          (F)     (DEG/KT/KT) (MB)    (MI)  (FT/S)
SOUTHERN BUOY              73 72  120/  6/  6 1019.1          0
WILMETTE HARBOR            76 74  100/  8/ 10   N/A           1/ 2
HARRISON CRIB              81      90/ 13/ 13   N/A
BURNHAM HARBOR             80                   N/A
CALUMET HARBOR             80      40/  7/  9 1017.7F
BURNS HARBOR               81      60/  7/  7 1018.6F
MICHIGAN CITY              77      40/  5/  6   N/A
MICHIGAN CITY 6N           78 74   20/  6/  8   N/A           1
ST. JOSEPH                 77 74   30/  6/  6 1018.5F         0
$$

ILZ025>027-034>036-040-047-049-050-058-095>099-232100-
WEST-CENTRAL ILLINOIS

CITY           SKY/WX    TMP DP  RH WIND       PRES   REMARKS
QUINCY         SUNNY     92  61  35 SE13      30.01F HX  92
GALESBURG*     MOSUNNY   89  63  41 SE7       30.04F HX  90
MACOMB*        MOSUNNY   93  59  32 SE8       30.05F HX  92
$$

ILZ028>032-037-038-041>044-048-051>054-059>061-232100-
CENTRAL ILLINOIS

CITY           SKY/WX    TMP DP  RH WIND       PRES   REMARKS
BLOOMINGTON    MOSUNNY   90  64  42 S7        30.07F HX  91
DECATUR        MOSUNNY   92  59  33 E8        30.04F HX  91
PEORIA         SUNNY     92  64  39 S8        30.04F HX  93
LACON*         PTSUNNY   93  65  39 W8        30.03F HX  94
LINCOLN*       MOSUNNY   94  61  33 S8        30.03F HX  94
SPRINGFIELD    MOSUNNY   95  62  33 E6        30.03F HX  96
TAYLORVILLE    NOT AVBL
$$

ILZ033-039-045-046-055>057-062-063-232100-
EAST-CENTRAL ILLINOIS

CITY           SKY/WX    TMP DP  RH WIND       PRES   REMARKS
CHAMPAIGN      MOSUNNY   94  61  33 E6        30.05F HX  94
MATTOON        SUNNY     91  63  39 CALM      30.03F HX  92
PARIS*         SUNNY     92  64  38 NE3       30.05F HX  94
$$

ILZ079-100>102-232100-
SOUTHWEST ILLINOIS

CITY           SKY/WX    TMP DP  RH WIND       PRES   REMARKS
ALTON          MOSUNNY   91  64  40 SE7       30.02F HX  93
BELLEVILLE     SUNNY     92  62  36 SE3       30.00F HX  92
CAHOKIA*       MOSUNNY   95  61  32 NE8       30.01F HX  95
SPARTA*        MOSUNNY   92  64  39 E6        30.03F HX  93
$$

ILZ064>066-069>071-074>076-080>082-084>086-088>090-092>094-232100-
SOUTH-CENTRAL ILLINOIS

CITY           SKY/WX    TMP DP  RH WIND       PRES   REMARKS
CARBONDALE     MOSUNNY   90  66  45 SE3       30.01F HX  92
EFFINGHAM*     SUNNY     93  62  35 E9        30.04F HX  93
MARION         PTSUNNY   91  61  35 NE8       30.02F HX  91
MT. VERNON       N/A     92  61  35 VRB5      30.02  HX  92
CENTRALIA*     MOSUNNY   92  65  39 SE5       30.02F HX  94
SALEM*         SUNNY     92  57  30 E5        30.03F HX  91
METROPOLIS*    MOSUNNY   91  67  44 SE6       30.01F HX  94
$$

ILZ067-068-072-073-078-083-087-091-232100-
SOUTHEAST ILLINOIS

CITY           SKY/WX    TMP DP  RH WIND       PRES   REMARKS
LAWRENCEVILLE  SUNNY     91  63  39 E12       30.03F HX  92
FLORA*         MOSUNNY   93  61  34 S6        30.03F HX  93
FAIRFIELD*     SUNNY     92  58  31 CALM      30.01F HX  91
HARRISBURG*    MOSUNNY   92  63  38 E6        30.02F HX  93
ROBINSON*      SUNNY     91  63  38 E8        30.04F HX  92
CARMI*         SUNNY     89  62  40 E6        30.02F HX  89
$$

ABBREVIATIONS USED IN REMARKS
   TC - TEMPERATURE IN CELSIUS
  WCI - WIND CHILL INDEX
   HX - HEAT INDEX
  VSB - VISIBILITY
$$





USA.gov is the U.S. government's official web portal to all federal, state and local government web resources and services.